Regional Weather Roundup
Issued by NWS

Home | Current Version | Previous Version | Graphics & Text | Print | Product List | Glossary On
Versions: 1 2 3 4 5 6 7 8 9 10 11 12 13 14 15 16 17 18 19 20 21 22 23 24 25 26 27 28 29 30 31 32 33 34 35 36 37 38 39 40 41 42 43 44 45 46 47 48 49 50
000
ASUS43 KIND 302209
RWRIN

WEATHER ROUNDUP FOR INDIANA
NATIONAL WEATHER SERVICE INDIANAPOLIS IN
600 PM EDT TUE JUN 30 2015

NOTE: "FAIR" INDICATES FEW OR NO CLOUDS BELOW 12,000 FEET WITH NO
SIGNIFICANT WEATHER AND/OR OBSTRUCTIONS TO VISIBILITY.

* - STATION DOES NOT REPORT WEATHER SUCH AS PRECIPITATION OR FOG.

+ - STATION NOT QUALITY CONTROLLED BY THE NATIONAL WEATHER SERVICE.
    USE DATA WITH CAUTION...ESPECIALLY DEWPOINT AND RELATIVE
    HUMIDITY OBSERVATIONS.

INZ001>003-010>013-019-020-302300-
NORTHWEST INDIANA

CITY           SKY/WX    TMP DP  RH WIND       PRES   REMARKS
KNOX *+        MOSUNNY   72  59  64 N14       29.81R
LA PORTE +     SUNNY     73  61  65 NW10G20   29.83R
MICHIGAN CITY+ SUNNY     72  59  64 N8        29.83S
MONTICELLO +   MOSUNNY   78  63  58 NW13      29.79S
RENSSELAER +   MOSUNNY   79  63  57 W9G18     29.81S
VALPARAISO     SUNNY     73  59  61 N7        29.83R

$$

LMZ046-743>745-302300-
SOUTHERN LAKE MICHIGAN

STATION/POSITION TIME  TEMP    WIND        PRES    WAVE
                       AIR SEA DIR/SP/G            HT
                 (UTC) (F)     (DEG/KT/KT) (MB)    (FT)
BURNS HARBOR     2200   68      60/  7/  8 1010.5S
MICHIGAN CITY    2200   64      10/  4/  5   N/A
5NW MICH CITY    2200   66 66   10/ 10/ 16   N/A     1

$$

INZ004-005-014>016-021>024-302300-
NORTH CENTRAL INDIANA

CITY           SKY/WX    TMP DP  RH WIND       PRES   REMARKS
ELKHART        MOSUNNY   72  59  64 NW10      29.81S
GOSHEN         MOSUNNY   71  60  68 NW15      29.80R
LOGANSPORT +   MOSUNNY   79  55  44 NW9       29.80S
PERU/GRISSOM   MOSUNNY   79  62  55 NW14      29.78S
ROCHESTER +    SUNNY     77  61  57 N9        29.80R
SOUTH BEND     CLOUDY    72  60  66 NW12      29.82S
WARSAW +         N/A     73  61  64 NW10G16   29.81R

$$

INZ006>009-017-018-025>027-302300-
NORTHEAST INDIANA

CITY           SKY/WX    TMP DP  RH WIND       PRES   REMARKS
ANGOLA *+      MOSUNNY   75  63  64 W10       29.77R
AUBURN +       PTSUNNY   77  59  53 W10       29.78S
FORT WAYNE     MOSUNNY   78  62  57 NW14      29.78S
HUNTINGTON +   CLOUDY    76  62  60 NW6       29.78S

$$

INZ028-029-035-036-043>045-051>053-302300-
WEST CENTRAL INDIANA

CITY           SKY/WX    TMP DP  RH WIND       PRES   REMARKS
CRAWFORDSVL +  MOSUNNY   77  59  54 W13       29.81S
GREENCASTLE +  MOSUNNY   77  64  65 NW5       29.81F
LAFAYETTE      SUNNY     79  63  57 NW9       29.79S
TERRE HAUTE    PTSUNNY   80  67  64 W9        29.79F

$$

INZ030>032-037>040-046>048-054>057-064-065-302300-
CENTRAL INDIANA

CITY           SKY/WX    TMP DP  RH WIND       PRES   REMARKS
CP ATTERBURY + TSTM      77  63  61 N5        29.82R
FRANKFORT +    MOSUNNY   79  64  59 W12       29.82S
GREENWOOD *+   MOSUNNY   75  63  64 MISG      29.81
INDIANAPOLIS   PTSUNNY   80  65  59 W17       29.79S THUNDER
-EAGLE CREEK   CLOUDY    79  65  62 W10       29.79S
KOKOMO *+      MOSUNNY   79  63  57 NW13      29.78F
MARION +       SUNNY     77  61  56 W12       29.79F
MT COMFORT *+  MOSUNNY   79  54  41 W10       29.81R
SHELBYVILLE    PTSUNNY   81  65  58 W10       29.79S
ZIONSVILLE +   MOSUNNY   80  62  54 NW10G20   29.81R

$$

INZ033-034-041-042-049-050-058-059-302300-
EAST CENTRAL INDIANA

CITY           SKY/WX    TMP DP  RH WIND       PRES   REMARKS
MUNCIE         MOSUNNY   78  62  57 NW12      29.79F

$$

INZ060-061-067>069-081>083-085>088-302300-
SOUTHWEST INDIANA

CITY           SKY/WX    TMP DP  RH WIND       PRES   REMARKS
EVANSVILLE     SUNNY     83  67  58 W13       29.85S
HUNTINGBURG *+ MOSUNNY   82  66  57 W13       29.84S
WASHINGTON +   MOSUNNY   82  65  56 W10       29.81F

$$

INZ062-063-066-070>080-084-089>092-302300-
SOUTH CENTRAL AND SOUTHEAST INDIANA

CITY           SKY/WX    TMP DP  RH WIND       PRES   REMARKS
BLOOMINGTON    PTSUNNY   81  65  58 W10G22    29.81F
MADISON *+     PTSUNNY   68  63  83 SW5       29.85S
NORTH VERNON + PTSUNNY   77  68  73 S5        29.82
SEYMOUR +      MOSUNNY   77  68  73 S5        29.80

$$



USA.gov is the U.S. government's official web portal to all federal, state and local government web resources and services.